COSMOS 2117

Satellite information

Favourite Embed

Satellite Type and Status

PAYLOADIN ORBIT

Key statistics

Satellite COSMOS 2117 at a glance.

Uptime

12618

Days in orbit

Revolutions

≈ 12.7

Per day

Orbit

LEO

Low Earth Orbit

Inclination

82.6

Latest

Satellite identification and parameters

Extended collection of information and parameters for COSMOS 2117.

Object identification

Identified? True

Debris? False

Object name: COSMOS 2117

International designator: 1990-114D

Object number (NORAD): 21031

Object ID (CCSDS): 21031

Country: COMMONWEALTH OF INDEPENDENT STATES (CIS)

Current information (Y/N): Y

RCS size: LARGE

Orbital parameters

Period: 113.832 minutes

Inclination: 82.5741 deg

SMA: 7780.435 km

Apoapsis: 1409.119 km

Periapsis: 1395.482 km

RAAN: 58.237 deg

Eccentricy: 0.0008764

Argument of periapsis: 125.2292 deg

Mean anomaly: 246.0094 deg

Mean motion: 12.65018573 rev/day

Mean motion (dot): 0.00000034 rev/day2

B* drag term: 0.00012703 1/REarth

Two-line elements (TLE)

Creation date: July 8, 2025, 2:27 a.m.

Reference frame: TEME

Reference center: EARTH

Epoch: July 7, 2025, 9:40 p.m. UTC

TLE line 0: 0 COSMOS 2117

TLE line 1: 1 21031U 90114D 25188.90297216 .00000034 00000-0 12703-3 0 9995

TLE line 2: 2 21031 82.5741 58.2370 0008764 125.2292 246.0094 12.65018573594741

Live tracking on map

Real-time ground track for satellite COSMOS 2117.

In-orbit conjunctions

There are no conjunctions computed for COSMOS 2117, at the moment. Check back to stay up to date, as we update our databases every day.

Go to all conjunctions

Associated space launch

Second generation store-dump military communications satellite

COSMOS 2117 was lifted into orbit during the mission ‘Tsiklon-3 | Strela-3 55 to 60’, on board a Tsiklon-3 space rocket.

The launch took place on Dec. 22, 1990, 7:28 a.m. from 32/2.

For more information about the launch, click the button.

Launch to space Tsiklon-3 | Strela-3 55 to 60
Tsiklon-3 | Strela-3 55 to 60

Agency: N/A

Status: Launch Successful

Launch date: Dec. 22, 1990, 7:28 a.m. UTC

Rocket: Tsiklon-3

Launch pad: 32/2

Location: Plesetsk Cosmodrome, Russian Federation

...

Latest news about this satellite

There are no fresh news available about this satellite. Check back as we update our databases every day.


Newsletter sign-up

Weekly statistics, charts and insights to help you stay on top of the space industry.